Regional Weather Roundup
Issued by NWS Northern Indiana

Home | Current Version | Previous Version | Text Only | Print | Product List | Glossary Off
Versions: 1 2 3 4 5 6 7 8 9 10 11 12 13 14 15 16 17 18 19 20 21 22 23 24 25 26 27 28 29 30 31 32 33 34 35 36 37 38 39 40 41 42 43 44 45 46 47 48 49 50

000
ASUS43 KIWX 280000
RWRIWX

KIWX WEATHER ROUNDUP
NATIONAL WEATHER SERVICE NORTHERN INDIANA
800 PM EDT TUE SEP 27 2016

NOTE: "FAIR" INDICATES FEW OR NO CLOUDS BELOW 12,000 FEET WITH NO
SIGNIFICANT WEATHER AND/OR OBSTRUCTIONS TO VISIBILITY.

* THESE STATIONS ARE NOT UNDER NWS QUALITY CONTROL. THEY ALSO MAY NOT
  REPORT WEATHER SUCH AS PRECIPITATION OR FOG.

INZ001>027-280100-
NORTHERN INDIANA

CITY           SKY/WX    TMP DP  RH WIND       PRES   REMARKS
GARY*          MOCLDY    64  32  29 W12       29.77R
SOUTH BEND     MOCLDY    60  41  49 W5        29.78R
6HR MIN TEMP:  59; 6HR MAX TEMP:  69;

ELKHART*       CLEAR    N/A N/A N/A MISG      29.78R
GOSHEN         CLEAR     58  36  43 NW5       29.77R
6HR MIN TEMP:  58; 6HR MAX TEMP:  70; 6HR PCP: TRACE;

ANGOLA*          N/A     59  50  72 CALM      29.78R
FORT WAYNE     PTCLDY    59  37  44 SW6       29.79R
6HR MIN TEMP:  59; 6HR MAX TEMP:  74;

PERU/GRISSOM   CLEAR     62  36  38 SW8       29.77S
6HR MIN TEMP:  62; 6HR MAX TEMP:  74;


$$
INZ028>050-280100-
CENTRAL INDIANA

CITY           SKY/WX    TMP DP  RH WIND       PRES   REMARKS
LAFAYETTE      CLEAR     64  39  39 W3        29.79R
6HR MIN TEMP:  64; 6HR MAX TEMP:  74; 6HR PCP: TRACE;

MUNCIE*        CLEAR     67  39  35 SW6       29.81R
6HR MIN TEMP:  67; 6HR MAX TEMP:  76;

INDIANAPOLIS   PTCLDY    64  45  49 S9        29.82R
6HR MIN TEMP:  64; 6HR MAX TEMP:  75;


$$
MIZ043>046-050>051-056>058-064>065-071>073-077>080-280100-
SOUTHWEST LOWER MICHIGAN

CITY           SKY/WX    TMP DP  RH WIND       PRES   REMARKS
BATTLE CREEK   CLOUDY    60  47  61 N6        29.78R
6HR MIN TEMP:  60; 6HR MAX TEMP:  68;

BENTON HARBOR  CLOUDY    62  47  57 VRB3      29.76R
6HR MIN TEMP:  62; 6HR MAX TEMP:  70;

COLDWATER*     CLOUDY    60  33  36 CALM      29.77S
6HR MIN TEMP:  60; 6HR MAX TEMP:  69;

HILLSDALE*     CLOUDY    55  41  58 CALM      29.77S
HOLLAND        LGT RAIN  57  48  72 NW8       29.78R
6HR MIN TEMP:  57; 6HR MAX TEMP:  63; 6HR PCP: TRACE;

GRAND RAPIDS   LGT RAIN  56  47  71 SW9       29.78R
6HR MIN TEMP:  56; 6HR MAX TEMP:  62; 6HR PCP: TRACE;

KALAMAZOO      CLOUDY    60  45  57 NW9       29.79R
6HR MIN TEMP:  60; 6HR MAX TEMP:  69;

STURGIS*       CLOUDY    59  41  51 CALM      29.77R
6HR MIN TEMP:  59; 6HR MAX TEMP:  68;

THREE RIVERS*  FAIR      60  43  52 SW3       29.77R
6HR MIN TEMP:  60; 6HR MAX TEMP:  69;


$$
OHZ001>008-015>018-024>025-280100-
NORTHWEST OHIO

CITY           SKY/WX    TMP DP  RH WIND       PRES   REMARKS
DEFIANCE       CLEAR     59  43  55 CALM      29.78R
6HR MIN TEMP:  59; 6HR MAX TEMP:  73;

FINDLAY        CLEAR     63  35  35 SW6       29.78S
6HR MIN TEMP:  63; 6HR MAX TEMP:  75;

TOLEDO EXPRESS PTCLDY    55  48  77 CALM      29.77R
6HR MIN TEMP:  55; 6HR MAX TEMP:  70;

TOLEDO METCALF CLEAR     62  41  46 CALM      29.79R
6HR MIN TEMP:  61; 6HR MAX TEMP:  72;

LIMA           CLEAR     65  40  39 SW6       29.80R
6HR MIN TEMP:  65; 6HR MAX TEMP:  74;


$$
AND FOR LAKE MICHIGAN COASTAL AND OPEN LAKE BUOY OBSERVATIONS

STATION/POSITION TEMP    WIND        PRES    VSBY  WAVE
                 AIR SEA DIR/SP/G                  HT/PER
                 (F)     (DEG/KT/KT) (MB)    (MI)  (FT/S)
CALUMET HARBOR    66     260/  5/  9 1007.5R
MICHIGAN CITY     67     250/ 18/ 20   N/A
BURNS HARBOR      67     270/ 15/ 19 1008.5R
SAINT JOSEPH      63     360/  8/ 21 1007.8
SOUTH LAKE BUOY   61 70  320/ 16/ 19 1006.8          3/ 5
4 MI NW BRIDGMAN  66 66  320/ 12/ 19 1007.7R         5/ 6
MICHIGAN CITY     68 67  290/ 14/ 19   N/A           4/ 5

$$
&&



USA.gov is the U.S. government's official web portal to all federal, state and local government web resources and services.